Regional Weather Roundup
Issued by NWS

Home | Current Version | Previous Version | Text Only | Print | Product List | Glossary Off
Versions: 1 2 3 4 5 6 7 8 9 10 11 12 13 14 15 16 17 18 19 20 21 22 23 24 25 26 27 28 29 30 31 32 33 34 35 36 37 38 39 40 41 42 43 44 45 46 47 48 49 50

000
ASUS45 KCYS 031810
RWRWY

WYOMING REGIONAL WEATHER ROUNDUP
NATIONAL WEATHER SERVICE CHEYENNE WY
1200 PM MDT TUE MAY 03 2016

NOTE:  "FAIR" INDICATES FEW OR NO CLOUDS BELOW 12,000 FEET
WITH NO SIGNIFICANT WEATHER AND/OR OBSTRUCTIONS TO VISIBILITY.

WYZ001-031900-
YELLOWSTONE NATIONAL PARK

CITY           SKY/WX    TMP DP  RH WIND       PRES   REMARKS
LK YELLOWSTONE NOT AVBL
W YELLOWSTONE  NOT AVBL

$$
WYZ002>013-054>058-071-098>099-031900-
NORTHERN WYOMING

CITY           SKY/WX    TMP DP  RH WIND       PRES   REMARKS
JACKSON        FAIR      57  27  30 SE5       30.30F
CODY           FAIR      66  32  28 E7        30.21S
GREYBULL       FAIR      67  30  25 VRB3      30.18F
6HR MIN TEMP:  38; 6HR MAX TEMP:  67;

WORLAND        FAIR      65  35  33 VRB3      30.20F
6HR MIN TEMP:  37; 6HR MAX TEMP:  65;

SHERIDAN       FAIR      70  37  29 VRB3      30.18S
6HR MIN TEMP:  35; 6HR MAX TEMP:  71;

BUFFALO        NOT AVBL
GILLETTE       FAIR      66  40  38 N12       30.18S
6HR MIN TEMP:  41; 6HR MAX TEMP:  67;

HULETT         FAIR      66  36  32 N13G21    30.17S
NEWCASTLE      FAIR      66  34  30 N10G20    30.15F

$$
WYZ014>020-022>026-101>103-031900-
CENTRAL WYOMING

CITY           SKY/WX    TMP DP  RH WIND       PRES   REMARKS
BIG PINEY      FAIR      60  21  22 S6        30.31F
6HR MIN TEMP:  27; 6HR MAX TEMP:  61;

PINEDALE       FAIR      59  21  23 W6        30.31F
DUBOIS         FAIR      63  18  17 E6        30.27F
LANDER         FAIR      64  32  30 SE5       30.24S
6HR MIN TEMP:  37; 6HR MAX TEMP:  64;

RIVERTON       FAIR      61  38  42 MISG      30.26F
6HR MIN TEMP:  38; 6HR MAX TEMP:  61;

CASPER         FAIR      60  32  34 S5        30.24F
6HR MIN TEMP:  34; 6HR MAX TEMP:  61;

DOUGLAS        FAIR      65  36  34 NW14G21   30.22S
6HR MIN TEMP:  36; 6HR MAX TEMP:  66;


$$
WYZ021-027>030-104>119-031900-
SOUTHERN WYOMING

CITY           SKY/WX    TMP DP  RH WIND       PRES   REMARKS
EVANSTON       FAIR      58  23  26 NW6       30.32F
6HR MIN TEMP:  33; 6HR MAX TEMP:  58;

KEMMERER         N/A     59  19  21 CALM      30.33S
FORT BRIDGER   CLEAR     57  21  24 N3        30.36S
ROCK SPRINGS   FAIR      56  20  24 VRB6      30.31F
6HR MIN TEMP:  30; 6HR MAX TEMP:  57;

DIXON          FAIR      58  30  35 S9        30.31F
RAWLINS        FAIR      58  28  32 N8        30.30S
6HR MIN TEMP:  28; 6HR MAX TEMP:  58;

SARATOGA       FAIR      54  28  37 N8G16     30.32S
LARAMIE        FAIR      50  30  46 N10       30.30S
6HR MIN TEMP:  24; 6HR MAX TEMP:  50;

CHEYENNE       FAIR      57  31  37 NW17G26   30.24F
6HR MIN TEMP:  41; 6HR MAX TEMP:  60;

TORRINGTON     FAIR      67  33  28 N13G26    30.15F
6HR MIN TEMP:  40; 6HR MAX TEMP:  67;

PINE BLUFFS    FAIR      61  34  36 N20G33    30.20F

$$



USA.gov is the U.S. government's official web portal to all federal, state and local government web resources and services.